When you browse on this site, cookies collect data to enhance your experience and personalize the content and advertising you see.
Visit our Privacy Policy to learn more. By continuing to use the site, you agree to this use of cookies and data.
  • In Austria
  • List of Countries
  • For 7 days
  • Water Temperature
  • Satellite Maps
  • Weather Map
  • News
  • Weather Widgets
  • user-avatar
    Login

    Hourly Weather Baku

    Today, 23 March, Saturday

    Time Temperature Precipitation Wind Pressure Humidity
    00:00 +7°C° 0 mm 6 mps 765 mmHg 88%
    01:00 +7°C° 0 mm 5 mps 765 mmHg 87%
    02:00 +7°C° 0 mm 4 mps 765 mmHg 87%
    03:00 +7°C° 0 mm 4 mps 765 mmHg 86%
    04:00 +8°C° 0.1 mm 3 mps 765 mmHg 87%
    05:00 +8°C° 0.1 mm 2 mps 764 mmHg 87%
    06:00 +9°C° 0.1 mm 1 mps 764 mmHg 87%
    07:00 +8°C° 0 mm 2 mps 764 mmHg 83%
    08:00 +8°C° 0 mm 4 mps 764 mmHg 79%
    09:00 +9°C° 0 mm 6 mps 763 mmHg 74%
    10:00 +10°C° 0 mm 6 mps 763 mmHg 72%
    11:00 +11°C° 0 mm 7 mps 762 mmHg 69%
    12:00 +11°C° 0 mm 8 mps 762 mmHg 66%
    13:00 +12°C° 0 mm 8 mps 761 mmHg 66%
    14:00 +12°C° 0 mm 9 mps 760 mmHg 66%
    15:00 +12°C° 0 mm 9 mps 760 mmHg 66%
    16:00 +11°C° 0 mm 9 mps 759 mmHg 69%
    17:00 +11°C° 0 mm 9 mps 759 mmHg 71%
    18:00 +11°C° 0 mm 9 mps 759 mmHg 74%
    19:00 +10°C° 0 mm 9 mps 759 mmHg 75%
    20:00 +10°C° 0 mm 9 mps 759 mmHg 77%
    21:00 +10°C° 0 mm 9 mps 759 mmHg 78%
    22:00 +10°C° 0 mm 8 mps 759 mmHg 78%
    23:00 +9°C° 0 mm 8 mps 759 mmHg 78%

    Tomorrow, 24 March, Sunday

    Time Temperature Precipitation Wind Pressure Humidity
    00:00 +9°C° 0 mm 7 mps 758 mmHg 78%
    01:00 +9°C° 0 mm 7 mps 758 mmHg 78%
    02:00 +9°C° 0 mm 6 mps 758 mmHg 79%
    03:00 +9°C° 0 mm 6 mps 758 mmHg 79%
    04:00 +9°C° 0 mm 5 mps 758 mmHg 78%
    05:00 +9°C° 0 mm 5 mps 758 mmHg 77%
    06:00 +10°C° 0 mm 4 mps 758 mmHg 76%
    07:00 +9°C° 0 mm 5 mps 758 mmHg 76%
    08:00 +9°C° 0 mm 5 mps 758 mmHg 77%
    09:00 +9°C° 0 mm 6 mps 759 mmHg 77%
    10:00 +9°C° 0 mm 7 mps 759 mmHg 75%
    11:00 +9°C° 0 mm 8 mps 759 mmHg 74%
    12:00 +9°C° 0 mm 10 mps 759 mmHg 72%
    13:00 +9°C° 0 mm 10 mps 758 mmHg 71%
    14:00 +9°C° 0 mm 11 mps 758 mmHg 71%
    15:00 +9°C° 0 mm 12 mps 758 mmHg 71%
    16:00 +8°C° 0 mm 12 mps 758 mmHg 73%
    17:00 +8°C° 0 mm 12 mps 758 mmHg 76%
    18:00 +7°C° 0 mm 13 mps 758 mmHg 78%
    19:00 +7°C° 0 mm 13 mps 759 mmHg 78%
    20:00 +7°C° 0 mm 13 mps 759 mmHg 78%
    21:00 +5°C° 0 mm 13 mps 760 mmHg 78%
    22:00 +5°C° 0.2 mm 14 mps 760 mmHg 77%
    23:00 +5°C° 0.2 mm 14 mps 760 mmHg 76%

    Day after tomorrow, 25 March, Monday

    Time Temperature Precipitation Wind Pressure Humidity
    00:00 +5°C° 0.2 mm 15 mps 760 mmHg 76%
    01:00 +5°C° 0 mm 15 mps 760 mmHg 76%
    02:00 +5°C° 0 mm 16 mps 760 mmHg 76%
    03:00 +4°C° 0 mm 16 mps 760 mmHg 76%
    04:00 +4°C° 0 mm 16 mps 760 mmHg 75%
    05:00 +4°C° 0 mm 16 mps 760 mmHg 75%
    06:00 +4°C° 0 mm 16 mps 760 mmHg 74%
    07:00 +4°C° 0 mm 16 mps 760 mmHg 72%
    08:00 +4°C° 0 mm 16 mps 761 mmHg 69%
    09:00 +5°C° 0 mm 16 mps 761 mmHg 66%
    10:00 +5°C° 0 mm 16 mps 761 mmHg 66%
    11:00 +5°C° 0 mm 17 mps 760 mmHg 65%
    12:00 +5°C° 0 mm 17 mps 760 mmHg 65%
    13:00 +5°C° 0.6 mm 16 mps 760 mmHg 67%
    14:00 +5°C° 0.6 mm 16 mps 760 mmHg 69%
    15:00 +4°C° 0.6 mm 15 mps 759 mmHg 70%
    16:00 +4°C° 0.6 mm 15 mps 759 mmHg 71%
    17:00 +4°C° 0.6 mm 15 mps 760 mmHg 72%
    18:00 +4°C° 0.6 mm 15 mps 760 mmHg 72%
    19:00 +4°C° 0.2 mm 15 mps 760 mmHg 72%
    20:00 +4°C° 0.2 mm 14 mps 760 mmHg 72%
    21:00 +4°C° 0.2 mm 14 mps 761 mmHg 71%
    22:00 +4°C° 0.1 mm 13 mps 761 mmHg 71%
    23:00 +4°C° 0.1 mm 12 mps 760 mmHg 71%

    26 March, Tuesday

    Time Temperature Precipitation Wind Pressure Humidity
    00:00 +4°C° 0.1 mm 12 mps 760 mmHg 70%
    01:00 +4°C° 0 mm 11 mps 760 mmHg 70%
    02:00 +5°C° 0 mm 10 mps 761 mmHg 69%
    03:00 +5°C° 0 mm 9 mps 761 mmHg 68%
    04:00 +5°C° 0 mm 9 mps 761 mmHg 68%
    05:00 +5°C° 0 mm 9 mps 761 mmHg 68%
    06:00 +3°C° 0 mm 9 mps 762 mmHg 67%
    07:00 +5°C° 0 mm 9 mps 762 mmHg 64%
    08:00 +6°C° 0 mm 9 mps 762 mmHg 61%
    09:00 +6°C° 0 mm 9 mps 762 mmHg 58%
    10:00 +7°C° 0 mm 9 mps 762 mmHg 56%
    11:00 +7°C° 0 mm 8 mps 762 mmHg 54%
    12:00 +9°C° 0 mm 8 mps 762 mmHg 52%
    13:00 +9°C° 0 mm 8 mps 761 mmHg 52%
    14:00 +9°C° 0 mm 8 mps 761 mmHg 52%
    15:00 +9°C° 0 mm 7 mps 761 mmHg 52%
    16:00 +8°C° 0 mm 7 mps 761 mmHg 55%
    17:00 +8°C° 0 mm 7 mps 761 mmHg 57%
    18:00 +7°C° 0 mm 6 mps 761 mmHg 60%
    19:00 +7°C° 0 mm 6 mps 761 mmHg 62%
    20:00 +7°C° 0 mm 6 mps 761 mmHg 63%
    21:00 +7°C° 0 mm 6 mps 761 mmHg 65%
    22:00 +7°C° 0 mm 5 mps 760 mmHg 66%
    23:00 +7°C° 0 mm 5 mps 760 mmHg 67%

    27 March, Wednesday

    Time Temperature Precipitation Wind Pressure Humidity
    00:00 +7°C° 0 mm 4 mps 759 mmHg 68%
    01:00 +7°C° 0.1 mm 3 mps 759 mmHg 70%
    02:00 +7°C° 0.1 mm 2 mps 759 mmHg 71%
    03:00 +7°C° 0.1 mm 2 mps 758 mmHg 72%
    04:00 +7°C° 0 mm 2 mps 758 mmHg 72%
    05:00 +7°C° 0 mm 2 mps 758 mmHg 73%
    06:00 +7°C° 0 mm 3 mps 758 mmHg 73%
    07:00 +8°C° 0 mm 3 mps 758 mmHg 69%
    08:00 +9°C° 0 mm 3 mps 758 mmHg 65%
    09:00 +10°C° 0 mm 4 mps 758 mmHg 61%
    10:00 +11°C° 0 mm 4 mps 758 mmHg 58%
    11:00 +12°C° 0 mm 4 mps 758 mmHg 56%
    12:00 +13°C° 0 mm 4 mps 758 mmHg 53%
    13:00 +12°C° 0 mm 4 mps 758 mmHg 55%
    14:00 +12°C° 0 mm 4 mps 758 mmHg 57%
    15:00 +12°C° 0 mm 3 mps 758 mmHg 59%
    16:00 +11°C° 0 mm 3 mps 759 mmHg 61%
    17:00 +11°C° 0 mm 3 mps 759 mmHg 62%
    18:00 +10°C° 0 mm 3 mps 759 mmHg 63%
    19:00 +10°C° 0 mm 2 mps 760 mmHg 64%
    20:00 +10°C° 0 mm 2 mps 760 mmHg 64%
    21:00 +11°C° 0 mm 1 mps 760 mmHg 65%
    22:00 +11°C° 0 mm 1 mps 761 mmHg 66%
    23:00 +11°C° 0 mm 1 mps 761 mmHg 66%

    28 March, Thursday

    Time Temperature Precipitation Wind Pressure Humidity
    00:00 +10°C° 0 mm 0 mps 761 mmHg 67%
    01:00 +10°C° 0 mm 1 mps 761 mmHg 68%
    02:00 +10°C° 0 mm 1 mps 761 mmHg 69%
    03:00 +10°C° 0 mm 1 mps 761 mmHg 70%
    04:00 +10°C° 0 mm 1 mps 762 mmHg 70%
    05:00 +10°C° 0 mm 1 mps 762 mmHg 71%
    06:00 +11°C° 0 mm 1 mps 762 mmHg 71%
    07:00 +11°C° 0 mm 1 mps 763 mmHg 67%
    08:00 +12°C° 0 mm 1 mps 763 mmHg 64%
    09:00 +13°C° 0 mm 1 mps 764 mmHg 60%
    10:00 +14°C° 0 mm 1 mps 763 mmHg 57%
    11:00 +14°C° 0 mm 1 mps 763 mmHg 54%
    12:00 +15°C° 0 mm 2 mps 763 mmHg 51%
    13:00 +14°C° 0 mm 3 mps 763 mmHg 51%
    14:00 +14°C° 0 mm 3 mps 762 mmHg 51%
    15:00 +14°C° 0 mm 4 mps 762 mmHg 51%
    16:00 +13°C° 0 mm 4 mps 762 mmHg 53%
    17:00 +12°C° 0 mm 4 mps 762 mmHg 56%
    18:00 +12°C° 0 mm 4 mps 762 mmHg 58%
    19:00 +11°C° 0 mm 3 mps 763 mmHg 59%
    20:00 +11°C° 0 mm 3 mps 763 mmHg 60%
    21:00 +12°C° 0 mm 2 mps 763 mmHg 60%
    22:00 +11°C° 0 mm 3 mps 763 mmHg 61%
    23:00 +10°C° 0 mm 3 mps 763 mmHg 63%
    Show more